Location: Unspecified
(0.0000°N, 0.0000°E)
Time: 03:38:48
(UTC+00:00)

IBEX - Pass Details

Date: 23 May 2019
Orbit: 43050 x 333428 km, 30.2° (Epoch: 06 August)

Event Time Altitude Azimuth Distance (km) Brightness Sun altitude
Rises 18:55:14 0° 78° (ENE) 252,331 ? -13.7°
Reaches altitude 10° 19:37:37 10° 78° (ENE) 253,127 ? -23.5°
Maximum altitude 01:01:27 79° 359° (N) 261,773 ? -64.1°
Drops below altitude 10° 06:23:37 10° 279° (W) 279,098 ? 6.3°
Sets 07:05:23 0° 279° (W) 281,699 ? 16.0°
